Powrót do katalogu

FENGYUN 1C DEB

AktywnySSO
NORAD 31825·DEBRIS·🇨🇳 China

Wystrzelony May 10, 1999 z Taiyuan Satellite Launch Center

Loading…

Następne Przeloty (najbliższe 24 godziny)

TLE

ŚwieżeSource: Space-Track

Epoka: Sep 14, 2026, 05:34 UTC

1 31825U 99025CHP 26257.23208828  .00000587  00000-0  24846-3 0  9996
2 31825  98.6013 255.0090 0163439 258.6159  99.6620 14.22293771995374

Śledź FENGYUN 1C DEB w czasie rzeczywistym z AllMySat

Download on the App Store